| time (UTC) | temp C | wind direction | speed KPH | gust KPH | rain 1hr cm | rain 24hr cm | rain mn cm | humidity % | barometer mb |
| 20260506051024 | 12 | 304 | 0.0 | 3.2 | 0.00 | 0.13 | 0.00 | 90 | 1007.5 |
| 20260506045024 | 12 | 271 | 0.0 | 1.6 | 0.00 | 0.13 | 0.00 | 90 | 1007.5 |
| 20260506044024 | 12 | 272 | 0.0 | 1.6 | 0.00 | 0.13 | 0.00 | 90 | 1007.5 |
| 20260506043024 | 12 | 320 | 0.0 | 1.6 | 0.00 | 0.13 | 0.00 | 90 | 1007.5 |
| 20260506042024 | 12 | 278 | 0.0 | 1.6 | 0.00 | 0.13 | 0.00 | 90 | 1007.5 |
| 20260506041024 | 12 | 291 | 0.0 | 1.6 | 0.00 | 0.13 | 0.00 | 90 | 1007.5 |
| 20260506040024 | 12 | 155 | 0.0 | 1.6 | 0.00 | 0.13 | 0.00 | 90 | 1007.4 |
| 20260506035024 | 12 | 302 | 0.0 | 3.2 | 0.00 | 0.13 | 0.00 | 90 | 1007.4 |
| 20260506034024 | 12 | 129 | 0.0 | 1.6 | 0.00 | 0.13 | 0.00 | 91 | 1007.6 |
| 20260506033024 | 12 | 210 | 0.0 | 3.2 | 0.00 | 0.13 | 0.00 | 91 | 1007.7 |
| 20260506032024 | 12 | 236 | 0.0 | 1.6 | 0.00 | 0.13 | 0.00 | 91 | 1007.6 |
| 20260506031024 | 12 | 297 | 0.0 | 3.2 | 0.00 | 0.13 | 0.00 | 91 | 1007.6 |
| 20260506030024 | 12 | 115 | 0.0 | 4.8 | 0.00 | 0.13 | 0.00 | 92 | 1007.9 |
| 20260506025024 | 12 | 291 | 0.0 | 1.6 | 0.00 | 0.13 | 0.00 | 92 | 1007.9 |
| 20260506024024 | 12 | 269 | 0.0 | 3.2 | 0.00 | 0.13 | 0.00 | 92 | 1008.0 |
| 20260506023024 | 12 | 288 | 0.0 | 3.2 | 0.00 | 0.13 | 0.00 | 92 | 1007.9 |
| 20260506022024 | 12 | 141 | 0.0 | 1.6 | 0.00 | 0.13 | 0.00 | 92 | 1008.0 |
| 20260506021024 | 12 | 131 | 0.0 | 1.6 | 0.00 | 0.13 | 0.00 | 92 | 1007.9 |
| 20260506020235 | 12 | 228 | 0.0 | 1.6 | 0.00 | 0.13 | 0.00 | 93 | 1008.0 |
| 20260506020024 | 12 | 228 | 0.0 | 1.6 | 0.00 | 0.13 | 0.00 | 93 | 1008.0 |
| 20260506015024 | 12 | 4 | 0.0 | 1.6 | 0.00 | 0.13 | 0.00 | 92 | 1007.9 |
| 20260506014024 | 12 | 312 | 0.0 | 3.2 | 0.00 | 0.13 | 0.00 | 93 | 1008.0 |
| 20260506013024 | 12 | 295 | 0.0 | 1.6 | 0.00 | 0.13 | 0.00 | 93 | 1008.2 |
| 20260506012024 | 12 | 278 | 0.0 | 1.6 | 0.00 | 0.13 | 0.00 | 93 | 1008.0 |
| 20260506011024 | 13 | 283 | 0.0 | 1.6 | 0.00 | 0.13 | 0.00 | 93 | 1008.1 |
| 20260506010024 | 13 | 277 | 0.0 | 1.6 | 0.00 | 0.13 | 0.00 | 93 | 1008.3 |
| 20260506005024 | 13 | 169 | 0.0 | 1.6 | 0.00 | 0.13 | 0.00 | 93 | 1008.4 |
| 20260506004024 | 13 | 134 | 0.0 | 1.6 | 0.00 | 0.13 | 0.00 | 93 | 1008.4 |
| 20260506003024 | 13 | 289 | 0.0 | 1.6 | 0.00 | 0.13 | 0.00 | 93 | 1008.4 |
| 20260506002024 | 13 | 203 | 0.0 | 4.8 | 0.00 | 0.13 | 0.00 | 93 | 1008.6 |
| 20260506001024 | 13 | 176 | 0.0 | 3.2 | 0.00 | 0.13 | 0.00 | 93 | 1008.6 |
| 20260506000024 | 13 | 144 | 0.0 | 1.6 | 0.00 | 0.13 | 0.00 | 93 | 1008.6 |
| 20260505235025 | 13 | 262 | 0.0 | 1.6 | 0.00 | 0.13 | 0.00 | 92 | 1008.9 |
| 20260505234025 | 13 | 262 | 0.0 | 1.6 | 0.00 | 0.13 | 0.00 | 92 | 1008.8 |
| 20260505233025 | 13 | 266 | 0.0 | 3.2 | 0.00 | 0.13 | 0.00 | 92 | 1008.9 |
| 20260505232025 | 13 | 250 | 0.0 | 1.6 | 0.00 | 0.13 | 0.00 | 92 | 1008.9 |
| 20260505231025 | 13 | 249 | 0.0 | 1.6 | 0.00 | 0.13 | 0.00 | 92 | 1009.0 |
| 20260505230025 | 13 | 219 | 0.0 | 3.2 | 0.00 | 0.13 | 0.00 | 92 | 1008.8 |
| 20260505225025 | 13 | 115 | 0.0 | 1.6 | 0.00 | 0.13 | 0.00 | 92 | 1008.8 |
| 20260505224025 | 13 | 113 | 0.0 | 4.8 | 0.00 | 0.13 | 0.00 | 92 | 1008.9 |
| 20260505223025 | 13 | 161 | 0.0 | 1.6 | 0.00 | 0.13 | 0.00 | 92 | 1008.9 |
| 20260505222025 | 13 | 323 | 0.0 | 1.6 | 0.00 | 0.13 | 0.00 | 92 | 1008.8 |
| 20260505221025 | 13 | 321 | 0.0 | 0.0 | 0.00 | 0.13 | 0.13 | 92 | 1008.7 |
| 20260505220025 | 13 | 321 | 0.0 | 0.0 | 0.00 | 0.13 | 0.13 | 92 | 1008.5 |
| 20260505215025 | 13 | 296 | 0.0 | 1.6 | 0.00 | 0.13 | 0.13 | 92 | 1008.7 |
| 20260505214025 | 13 | 296 | 0.0 | 0.0 | 0.00 | 0.13 | 0.13 | 92 | 1008.7 |
| 20260505213025 | 13 | 297 | 0.0 | 0.0 | 0.00 | 0.13 | 0.13 | 92 | 1008.7 |
| 20260505212025 | 13 | 287 | 0.0 | 1.6 | 0.00 | 0.13 | 0.13 | 91 | 1008.7 |
| 20260505211025 | 13 | 293 | 0.0 | 1.6 | 0.00 | 0.13 | 0.13 | 91 | 1008.8 |
| 20260505210025 | 13 | 210 | 0.0 | 0.0 | 0.03 | 0.13 | 0.13 | 91 | 1008.9 |
| 20260505205025 | 13 | 210 | 0.0 | 1.6 | 0.05 | 0.13 | 0.13 | 90 | 1008.9 |
| 20260505204025 | 13 | 296 | 0.0 | 4.8 | 0.05 | 0.13 | 0.13 | 90 | 1008.8 |
| 20260505203025 | 14 | 291 | 0.0 | 4.8 | 0.08 | 0.13 | 0.13 | 89 | 1008.8 |
| 20260505202025 | 15 | 136 | 1.6 | 8.0 | 0.08 | 0.13 | 0.13 | 88 | 1008.7 |
| 20260505201025 | 15 | 214 | 0.0 | 1.6 | 0.08 | 0.13 | 0.13 | 88 | 1008.6 |
| 20260505200025 | 15 | 124 | 0.0 | 3.2 | 0.05 | 0.10 | 0.10 | 86 | 1008.5 |
| 20260505195025 | 15 | 276 | 0.0 | 1.6 | 0.03 | 0.08 | 0.08 | 85 | 1008.5 |
| 20260505194025 | 15 | 256 | 0.0 | 1.6 | 0.03 | 0.08 | 0.08 | 84 | 1008.2 |
| 20260505193025 | 15 | 256 | 0.0 | 0.0 | 0.00 | 0.05 | 0.05 | 83 | 1008.2 |
| 20260505192025 | 15 | 256 | 0.0 | 1.6 | 0.00 | 0.05 | 0.05 | 83 | 1008.2 |
| 20260505191025 | 15 | 256 | 0.0 | 1.6 | 0.00 | 0.05 | 0.05 | 83 | 1008.3 |
| 20260505190025 | 15 | 256 | 0.0 | 1.6 | 0.00 | 0.05 | 0.05 | 83 | 1008.3 |
| 20260505185025 | 16 | 256 | 0.0 | 1.6 | 0.00 | 0.05 | 0.05 | 82 | 1008.1 |
| 20260505184025 | 16 | 256 | 0.0 | 1.6 | 0.00 | 0.05 | 0.05 | 81 | 1008.0 |
| 20260505183026 | 16 | 256 | 0.0 | 0.0 | 0.00 | 0.05 | 0.05 | 80 | 1008.1 |
| 20260505182026 | 16 | 256 | 0.0 | 0.0 | 0.00 | 0.05 | 0.05 | 79 | 1008.1 |
| 20260505181026 | 16 | 256 | 0.0 | 1.6 | 0.00 | 0.05 | 0.05 | 77 | 1008.1 |
| 20260505180026 | 17 | 256 | 0.0 | 1.6 | 0.00 | 0.05 | 0.05 | 77 | 1008.0 |
| 20260505175026 | 17 | 256 | 0.0 | 1.6 | 0.00 | 0.05 | 0.05 | 77 | 1008.1 |
| 20260505174026 | 17 | 256 | 0.0 | 0.0 | 0.00 | 0.05 | 0.05 | 77 | 1008.0 |
| 20260505173026 | 17 | 256 | 0.0 | 0.0 | 0.00 | 0.05 | 0.05 | 78 | 1008.2 |
| 20260505172026 | 17 | 256 | 0.0 | 1.6 | 0.00 | 0.05 | 0.05 | 78 | 1008.1 |
| 20260505171026 | 16 | 256 | 0.0 | 0.0 | 0.00 | 0.05 | 0.05 | 78 | 1008.1 |
| 20260505170026 | 16 | 256 | 0.0 | 0.0 | 0.00 | 0.05 | 0.05 | 78 | 1008.1 |
| 20260505165026 | 16 | 256 | 0.0 | 0.0 | 0.00 | 0.05 | 0.05 | 77 | 1008.3 |
| 20260505164026 | 17 | 256 | 0.0 | 1.6 | 0.00 | 0.05 | 0.05 | 79 | 1008.3 |
| 20260505163026 | 17 | 256 | 0.0 | 0.0 | 0.00 | 0.05 | 0.05 | 80 | 1008.3 |
| 20260505162026 | 17 | 256 | 0.0 | 0.0 | 0.00 | 0.05 | 0.05 | 80 | 1008.5 |
| 20260505161026 | 16 | 256 | 0.0 | 0.0 | 0.00 | 0.05 | 0.05 | 81 | 1008.5 |
| 20260505153026 | 16 | 256 | 0.0 | 0.0 | 0.00 | 0.05 | 0.05 | 84 | 1008.4 |
| 20260505152026 | 16 | 256 | 0.0 | 0.0 | 0.00 | 0.05 | 0.05 | 83 | 1008.5 |
| 20260505151026 | 16 | 256 | 0.0 | 0.0 | 0.00 | 0.05 | 0.05 | 84 | 1008.6 |
| 20260505125027 | 20 | 299 | 0.0 | 0.0 | 0.00 | 0.00 | 0.00 | 59 | 1009.0 |
| 20260505124027 | 20 | 297 | 0.0 | 1.6 | 0.00 | 0.00 | 0.00 | 58 | 1009.0 |
| 20260505123027 | 20 | 248 | 0.0 | 1.6 | 0.00 | 0.00 | 0.00 | 57 | 1009.1 |
| 20260505122027 | 20 | 283 | 0.0 | 1.6 | 0.00 | 0.00 | 0.00 | 56 | 1009.0 |
| 20260505121027 | 20 | 162 | 0.0 | 1.6 | 0.00 | 0.00 | 0.00 | 55 | 1008.9 |
| 20260505120027 | 20 | 252 | 0.0 | 1.6 | 0.00 | 0.00 | 0.00 | 56 | 1009.0 |
| 20260505115027 | 20 | 247 | 0.0 | 1.6 | 0.00 | 0.00 | 0.00 | 57 | 1009.1 |
| 20260505114027 | 20 | 269 | 0.0 | 1.6 | 0.00 | 0.00 | 0.00 | 58 | 1009.0 |
| 20260505113027 | 20 | 262 | 0.0 | 1.6 | 0.00 | 0.00 | 0.00 | 57 | 1009.2 |
| 20260505112027 | 20 | 264 | 0.0 | 3.2 | 0.00 | 0.03 | 0.00 | 57 | 1009.2 |
| 20260505111027 | 20 | 264 | 0.0 | 1.6 | 0.00 | 0.03 | 0.00 | 58 | 1009.4 |
| 20260505102149 | 20 | 236 | 0.0 | 1.6 | 0.00 | 0.03 | 0.00 | 60 | 1009.8 |
| 20260505102115 | 20 | 236 | 0.0 | 1.6 | 0.00 | 0.03 | 0.00 | 60 | 1009.8 |
| 20260505102027 | 20 | 236 | 0.0 | 1.6 | 0.00 | 0.03 | 0.00 | 60 | 1009.8 |
| 20260505101027 | 20 | 258 | 0.0 | 1.6 | 0.00 | 0.03 | 0.00 | 62 | 1009.9 |
| 20260505100027 | 19 | 258 | 0.0 | 1.6 | 0.00 | 0.03 | 0.00 | 62 | 1010.0 |
| 20260505095237 | 19 | 257 | 0.0 | 1.6 | 0.00 | 0.03 | 0.00 | 64 | 1009.9 |
| 20260505095027 | 19 | 257 | 0.0 | 1.6 | 0.00 | 0.03 | 0.00 | 64 | 1009.9 |
| 20260505094027 | 19 | 261 | 0.0 | 1.6 | 0.00 | 0.03 | 0.00 | 63 | 1009.9 |
| 20260505093027 | 19 | 216 | 0.0 | 1.6 | 0.00 | 0.03 | 0.00 | 63 | 1009.9 |
| 20260505092027 | 18 | 213 | 0.0 | 1.6 | 0.00 | 0.03 | 0.00 | 65 | 1010.0 |
| 20260505091027 | 18 | 251 | 0.0 | 1.6 | 0.00 | 0.03 | 0.00 | 67 | 1010.1 |
| 20260505090027 | 18 | 259 | 0.0 | 1.6 | 0.00 | 0.03 | 0.00 | 67 | 1010.2 |
| 20260505085027 | 18 | 259 | 0.0 | 1.6 | 0.00 | 0.03 | 0.00 | 67 | 1010.3 |
| 20260505084027 | 18 | 266 | 0.0 | 1.6 | 0.00 | 0.03 | 0.00 | 67 | 1010.5 |
| 20260505083027 | 18 | 202 | 0.0 | 1.6 | 0.00 | 0.03 | 0.00 | 66 | 1010.5 |
| 20260505082027 | 18 | 193 | 0.0 | 1.6 | 0.00 | 0.03 | 0.00 | 67 | 1010.5 |
| 20260505081027 | 18 | 247 | 0.0 | 1.6 | 0.00 | 0.03 | 0.00 | 67 | 1010.5 |
| 20260505080027 | 17 | 257 | 0.0 | 1.6 | 0.00 | 0.03 | 0.00 | 68 | 1010.5 |
| 20260505075028 | 17 | 271 | 0.0 | 1.6 | 0.00 | 0.03 | 0.00 | 66 | 1010.4 |
| 20260505074028 | 17 | 255 | 0.0 | 1.6 | 0.00 | 0.03 | 0.00 | 68 | 1010.4 |
| 20260505073028 | 17 | 255 | 0.0 | 0.0 | 0.00 | 0.03 | 0.00 | 69 | 1010.4 |
| 20260505072028 | 17 | 255 | 0.0 | 0.0 | 0.00 | 0.03 | 0.00 | 70 | 1010.6 |
| 20260505071028 | 16 | 255 | 0.0 | 0.0 | 0.00 | 0.03 | 0.00 | 72 | 1010.6 |
| 20260505070028 | 16 | 255 | 0.0 | 0.0 | 0.00 | 0.03 | 0.00 | 73 | 1010.3 |
| 20260505065028 | 16 | 255 | 0.0 | 0.0 | 0.00 | 0.03 | 0.00 | 74 | 1010.6 |
| 20260505064028 | 15 | 255 | 0.0 | 1.6 | 0.00 | 0.03 | 0.00 | 74 | 1010.6 |
| 20260505063028 | 15 | 243 | 0.0 | 1.6 | 0.00 | 0.03 | 0.00 | 74 | 1010.8 |
| 20260505062028 | 15 | 266 | 0.0 | 0.0 | 0.00 | 0.03 | 0.00 | 75 | 1010.7 |
| 20260505061028 | 15 | 266 | 0.0 | 0.0 | 0.00 | 0.03 | 0.00 | 76 | 1010.9 |
| 20260505060028 | 15 | 250 | 0.0 | 1.6 | 0.00 | 0.03 | 0.00 | 76 | 1011.0 |
| 20260505055028 | 15 | 119 | 0.0 | 1.6 | 0.00 | 0.03 | 0.00 | 76 | 1011.0 |